Preview of NWS' New Version of Forecast
This preview is not operational and should not be used for support decisions.

Regional Weather Roundup (RWR)

Issued by National Weather Service (NWS)

                            
000
ASUS43 KTOP 210408
RWRKS 

WEATHER ROUNDUP FOR KANSAS
NATIONAL WEATHER SERVICE GOODLAND KS
1100 PM CDT TUE AUG 20 2019

NOTE:  "FAIR" INDICATES FEW OR NO CLOUDS BELOW 12,000 FEET WITH NO
SIGNIFICANT WEATHER AND/OR OBSTRUCTIONS TO VISIBILITY.

KSZ001>006-013>018-027>032-041>047-210500-
NORTHWEST KANSAS
  
CITY           SKY/WX    TMP DP  RH WIND       PRES   REMARKS
GOODLAND       MOCLDY    79  55  43 S23G35    30.03R                  
HAYS           FAIR      75  65  70 S16G22    29.81F                  
HILL CITY      FAIR      78  70  76 N5        29.99S                  
RUSSELL        FAIR      85  59  41 W13G24    29.97R                  
$$

KSZ061>065-074>080-084>089-210500-
SOUTHWEST KANSAS
  
CITY           SKY/WX    TMP DP  RH WIND       PRES   REMARKS
DODGE CITY     FAIR      82  51  34 SE9       30.02R                  
ELKHART        CLEAR     82  58  44 S15       30.04S                  
GARDEN CITY    FAIR      78  53  41 SE13      30.01R                  
GREAT BEND     FAIR      85  57  38 SW12      29.95F                  
LIBERAL        FAIR      80  61  52 S10       30.02R                  
PRATT          FAIR      85  62  45 S10       30.01R                  
$$

KSZ066>073-081>083-090>101-210500-
SOUTHEAST KANSAS
  
CITY           SKY/WX    TMP DP  RH WIND       PRES   REMARKS
CHANUTE        FAIR      83  76  79 S8        30.00R                  
COFFEYVILLE    FAIR      81  76  84 SE7       29.99R                  
HUTCHINSON     FAIR      86  72  62 SE8       29.95F                  
MEDICINE LODGE   N/A     79  66  64 W10G22    30.01R                  
NEWTON           N/A     83  74  74 S14       29.99S                  
PARSONS        FAIR      82  77  84 SE5       30.02R                  
WICHITA INTL   MOCLDY    85  73  67 S12       29.96S                  
WICHITA JABRA  FAIR      85  73  67 S12       29.98R                  
WICHITA MCCONL FAIR      85  71  62 SE12      29.98S                  
WINFIELD       FAIR      84  73  69 S10       29.99S                  
$$

KSZ007>012-019>026-033>040-048>060-102>105-210500-
NORTHEAST KANSAS
  
CITY           SKY/WX    TMP DP  RH WIND       PRES   REMARKS
CONCORDIA      FAIR      84  81  90 CALM      29.98R HX  99           
EMPORIA        FAIR      82  76  81 S14       29.96F                  
LAWRENCE       FAIR      82  77  84 E5        29.97R                  
MANHATTAN      FAIR      83  76  79 CALM      29.95S                  
MARYSVILLE     FAIR      81  79  94 E5        29.99F                  
OLATHE IND     FAIR      82  77  84 SE6       30.01R                  
OLATHE EXE     FAIR      81  77  88 CALM      30.01R                  
SALINA         FAIR      84  75  74 SE6       29.96R                  
TOPEKA BILLARD FAIR      81  75  82 E5        29.97R                  
TOPEKA FORBES  FAIR      82  76  81 SE6       29.98R                  
$$